Ceredo, WV

1:21 AM EDT on August 26, 2016 (GMT -0400)
Tri-State / Ferguson

Weather History for KHTS - August, 2013

Change the Weather History Date:

Wednesday, August 28, 2013

  Actual Average Record
Temperature  
Mean Temperature 82 °F 74 °F  
Max Temperature 90 °F 85 °F 103 °F (1948)
Min Temperature 73 °F 63 °F 49 °F (1986)
Degree Days  
Heating Degree Days 0 0  
Month to date heating degree days 4 0  
Since 1 June heating degree days 4 12  
Since 1 July heating degree days 4 0  
Cooling Degree Days 17 9  
Month to date cooling degree days 232 284  
Year to date cooling degree days 996 954  
Since 1 June cooling degree days 826 841  
Growing Degree Days 32 (Base 50)    
Moisture  
Dew Point 72 °F    
Average Humidity 78    
Maximum Humidity 100    
Minimum Humidity 56    
Precipitation  
Precipitation 2.02 in 0.11 in 2.15 in (1893)
Month to date precipitation 5.07 3.41  
Year to date precipitation 32.31 29.92  
Snow  
Snow 0.00 in - - ()
Month to date snowfall 0.0  
Since 1 September snowfall 12.4  
Snow Depth 0.00 in    
Sea Level Pressure  
Sea Level Pressure 29.94 in    
Wind  
Wind Speed 7 mph (SW)    
Max Wind Speed 32 mph    
Max Gust Speed 40 mph    
Visibility 5 miles    
Events Fog , Rain , Thunderstorm    
T = Trace of Precipitation, MM = Missing Value Source: NWS Daily Summary

Daily Weather History Graph

Daily Weather History Graph

Search for Another Location

Airport or City:

Trip Planner

Search our weather history database for the weather conditions in past years. The results will help you decide how hot, cold, wet, or windy it might be!

Date:

Astronomy

Aug. 28, 2013 Rise Set
Actual Time 6:56 AM EDT 8:05 PM EDT
Civil Twilight 6:29 AM EDT 8:32 PM EDT
Nautical Twilight 5:56 AM EDT 9:05 PM EDT
Astronomical Twilight 5:22 AM EDT 9:39 PM EDT
Moon 12:05 AM EDT (8/28) 2:39 PM EDT (8/28)
Length of Visible Light 14h 03m
Length of Day
13h 09m
Waning Gibbous, 47% of the Moon is Illuminated
Aug 28
Waning Gibbous
Sep 5
New
Sep 12
First Quarter
Sep 19
Full
Sep 26
Last Quarter

Hourly Weather History & Observations

Time (EDT) Temp. Heat Index Dew Point Humidity Pressure Visibility Wind Dir Wind Speed Gust Speed Precip Events Conditions
12:51 AM 77.0 °F - 71.1 °F 82% 29.97 in 8.0 mi SSW 4.6 mph - N/A   Clear
1:51 AM 77.0 °F - 72.0 °F 84% 29.98 in 8.0 mi WSW 3.5 mph - N/A   Clear
2:51 AM 75.9 °F - 72.0 °F 87% 29.96 in 7.0 mi SW 3.5 mph - N/A   Clear
3:51 AM 75.9 °F - 72.0 °F 87% 29.96 in 7.0 mi SW 5.8 mph - N/A   Mostly Cloudy
4:51 AM 75.9 °F - 72.0 °F 87% 29.96 in 7.0 mi Variable 3.5 mph - N/A   Mostly Cloudy
5:51 AM 75.0 °F - 72.0 °F 90% 29.95 in 7.0 mi SSW 4.6 mph - N/A   Clear
6:51 AM 73.9 °F - 72.0 °F 93% 29.97 in 4.0 mi SW 3.5 mph - N/A   Clear
7:18 AM 73.4 °F - 71.6 °F 94% 29.99 in 3.0 mi WSW 4.6 mph - N/A   Clear
7:37 AM 73.4 °F - 71.6 °F 94% 29.99 in 3.0 mi SW 4.6 mph - N/A   Clear
7:51 AM 75.0 °F - 72.0 °F 90% 29.96 in 3.0 mi SW 5.8 mph - N/A   Clear
8:04 AM 75.2 °F - 71.6 °F 89% 29.97 in 3.0 mi SSW 4.6 mph - N/A   Partly Cloudy
8:51 AM 78.1 °F - 73.0 °F 84% 29.97 in 3.0 mi SSW 5.8 mph - N/A   Haze
9:11 AM 78.8 °F - 71.6 °F 78% 30.00 in 5.0 mi WSW 6.9 mph - N/A   Haze
9:51 AM 80.1 °F 84.2 °F 73.0 °F 79% 29.97 in 5.0 mi SSW 6.9 mph - N/A   Haze
10:51 AM 84.0 °F 90.2 °F 73.0 °F 69% 29.96 in 5.0 mi SW 9.2 mph - N/A   Haze
11:51 AM 84.0 °F 90.2 °F 73.0 °F 69% 29.95 in 6.0 mi WSW 9.2 mph - N/A   Haze
12:51 PM 86.0 °F 93.0 °F 73.0 °F 65% 29.93 in 6.0 mi SW 9.2 mph - N/A   Haze
1:51 PM 88.0 °F 94.7 °F 72.0 °F 59% 29.92 in 6.0 mi WSW 9.2 mph - N/A   Haze
2:51 PM 89.1 °F 95.0 °F 71.1 °F 55% 29.91 in 10.0 mi WSW 15.0 mph 19.6 mph N/A   Scattered Clouds
3:51 PM 88.0 °F 93.8 °F 71.1 °F 57% 29.88 in 10.0 mi WSW 11.5 mph 20.7 mph N/A   Clear
4:51 PM 86.0 °F 90.1 °F 69.1 °F 57% 29.86 in 10.0 mi WSW 11.5 mph 20.7 mph N/A   Clear
4:55 PM 84.2 °F 88.4 °F 69.8 °F 62% 29.90 in 10.0 mi WSW 10.4 mph 20.7 mph N/A Thunderstorm Thunderstorm
5:04 PM 84.2 °F 88.4 °F 69.8 °F 62% 29.89 in 10.0 mi SW 12.7 mph 18.4 mph N/A Thunderstorm Thunderstorm
5:51 PM 84.9 °F 90.1 °F 71.1 °F 63% 29.86 in 10.0 mi SW 9.2 mph - N/A Thunderstorm Thunderstorm
6:49 PM 77.0 °F - 73.4 °F 89% 29.90 in 2.0 mi WNW 4.6 mph - 0.17 in Rain , Thunderstorm Light Thunderstorms and Rain
6:51 PM 77.0 °F - 73.0 °F 88% 29.88 in 0.5 mi West 8.1 mph - 0.22 in Fog , Rain , Thunderstorm Light Thunderstorms and Rain
6:53 PM 75.2 °F - 73.4 °F 94% 29.90 in 0.2 mi West 19.6 mph 34.5 mph 0.06 in Fog , Rain , Thunderstorm Heavy Thunderstorms and Rain
7:13 PM 78.8 °F - 71.6 °F 78% 29.90 in 2.0 mi South 9.2 mph - 0.93 in Rain , Thunderstorm Light Thunderstorms and Rain
7:36 PM 75.2 °F - 71.6 °F 89% 29.93 in 0.5 mi North 6.9 mph 17.3 mph 0.93 in Fog , Rain , Thunderstorm Light Thunderstorms and Rain
7:51 PM 73.9 °F - 73.0 °F 97% 29.91 in 0.5 mi North 5.8 mph - 1.36 in Fog , Rain , Thunderstorm Heavy Thunderstorms and Rain
8:51 PM 75.0 °F - 73.0 °F 94% 29.91 in 0.5 mi SW 5.8 mph - 0.44 in Fog , Thunderstorm Unknown
9:09 PM 75.2 °F - 73.4 °F 94% 29.94 in 3.0 mi SSW 3.5 mph - N/A Thunderstorm Overcast
9:51 PM 75.0 °F - 73.0 °F 94% 29.94 in 6.0 mi Calm Calm - N/A Thunderstorm Overcast
9:58 PM 75.2 °F - 73.4 °F 94% 29.96 in 8.0 mi Calm Calm - N/A   Mostly Cloudy
10:51 PM 75.0 °F - 73.0 °F 94% 29.94 in 6.0 mi SW 4.6 mph - N/A   Scattered Clouds
11:51 PM 73.9 °F - 72.0 °F 93% 29.93 in 4.0 mi SSW 4.6 mph - N/A   Clear